Soldotna, AK

9:05 AM AKDT on June 29, 2017 (GMT -0800)
Soldotna

Weather History for PASX - December, 2013

Change the Weather History Date:

Monday, December 2, 2013

  Actual Average Record
Temperature  
Mean Temperature 0 °F -  
Max Temperature 8 °F 21 °F 41 °F (1989)
Min Temperature -7 °F 7 °F -22 °F (1973)
Degree Days  
Heating Degree Days 64    
Moisture  
Dew Point -4 °F    
Average Humidity 86    
Maximum Humidity 100    
Minimum Humidity 65    
Precipitation  
Precipitation 0.00 in - - ()
Sea Level Pressure  
Sea Level Pressure 30.65 in    
Wind  
Wind Speed 3 mph (East)    
Max Wind Speed 8 mph    
Max Gust Speed -    
Visibility 10 miles    
Events      
Averages and records for this station are not official NWS values.
T = Trace of Precipitation, MM = Missing Value Source: NWS Daily Summary

Daily Weather History Graph

Daily Weather History Graph

Search for Another Location

Airport or City:

Trip Planner

Search our weather history database for the weather conditions in past years. The results will help you decide how hot, cold, wet, or windy it might be!

Date:

Astronomy

Dec. 02, 2013 Rise Set
Actual Time 9:46 AM AKST 4:00 PM AKST
Civil Twilight 8:50 AM AKST 4:56 PM AKST
Nautical Twilight 7:53 AM AKST 5:53 PM AKST
Astronomical Twilight 7:02 AM AKST 6:44 PM AKST
Moon 9:11 AM AKST (12/2) 4:23 PM AKST (12/2)
Length of Visible Light 8h 06m
Length of Day
6h 14m
Waning Crescent, 0% of the Moon is Illuminated
Dec 2
Waning Crescent
Dec 2
New
Dec 9
First Quarter
Dec 17
Full
Dec 25
Last Quarter

Hourly Weather History & Observations

Time (AKST) Temp. Windchill Dew Point Humidity Pressure Visibility Wind Dir Wind Speed Gust Speed Precip Events Conditions
12:16 AM -2.2 °F -12.5 °F -2.2 °F 100% 30.59 in 10.0 mi ENE 4.6 mph - N/A   Clear
12:36 AM -4.0 °F -14.6 °F -9.4 °F 78% 30.59 in 10.0 mi East 4.6 mph - N/A   Clear
12:56 AM -2.2 °F -10.4 °F -5.8 °F 85% 30.59 in 10.0 mi ENE 3.5 mph - N/A   Clear
1:16 AM -4.0 °F -16.3 °F -13.0 °F 65% 30.59 in 10.0 mi ENE 5.8 mph - N/A   Clear
1:36 AM -4.0 °F -14.6 °F -7.6 °F 85% 30.59 in 10.0 mi East 4.6 mph - N/A   Clear
1:56 AM -4.0 °F - -7.6 °F 85% 30.59 in 10.0 mi Calm Calm - N/A   Clear
2:16 AM -5.8 °F - -13.0 °F 71% 30.60 in 10.0 mi Calm Calm - N/A   Clear
2:36 AM -7.6 °F -16.5 °F -11.2 °F 84% 30.60 in 10.0 mi ENE 3.5 mph - N/A   Clear
2:56 AM -5.8 °F -14.5 °F -5.8 °F 100% 30.60 in 10.0 mi ENE 3.5 mph - N/A   Clear
3:16 AM -7.6 °F -16.5 °F -11.2 °F 84% 30.60 in 10.0 mi ENE 3.5 mph - N/A   Clear
3:36 AM -7.6 °F -16.5 °F -11.2 °F 84% 30.60 in 10.0 mi East 3.5 mph - N/A   Clear
3:56 AM -4.0 °F -12.4 °F -4.0 °F 100% 30.60 in 10.0 mi ENE 3.5 mph - N/A   Clear
4:16 AM -4.0 °F -12.4 °F -9.4 °F 78% 30.60 in 10.0 mi ENE 3.5 mph - N/A   Clear
4:36 AM -7.6 °F -16.5 °F -14.8 °F 71% 30.60 in 10.0 mi East 3.5 mph - N/A   Clear
4:56 AM -5.8 °F -14.5 °F -7.6 °F 92% 30.60 in 10.0 mi East 3.5 mph - N/A   Clear
5:16 AM -5.8 °F -14.5 °F -9.4 °F 84% 30.60 in 10.0 mi East 3.5 mph - N/A   Clear
5:36 AM -5.8 °F - -9.4 °F 84% 30.60 in 10.0 mi Calm Calm - N/A   Clear
5:56 AM -7.6 °F -16.5 °F -13.0 °F 77% 30.60 in 10.0 mi East 3.5 mph - N/A   Clear
6:16 AM -5.8 °F -14.5 °F -9.4 °F 84% 30.61 in 10.0 mi East 3.5 mph - N/A   Clear
6:36 AM -5.8 °F -18.4 °F -7.6 °F 92% 30.61 in 10.0 mi East 5.8 mph - N/A   Clear
6:56 AM -5.8 °F -16.7 °F -7.6 °F 92% 30.61 in 10.0 mi East 4.6 mph - N/A   Clear
7:16 AM -5.8 °F -16.7 °F -9.4 °F 84% 30.61 in 10.0 mi East 4.6 mph - N/A   Clear
7:36 AM -5.8 °F -16.7 °F -9.4 °F 84% 30.61 in 10.0 mi ENE 4.6 mph - N/A   Clear
7:56 AM -5.8 °F -16.7 °F -9.4 °F 84% 30.62 in 10.0 mi East 4.6 mph - N/A   Clear
8:16 AM -5.8 °F -16.7 °F -13.0 °F 71% 30.62 in 10.0 mi East 4.6 mph - N/A   Clear
8:36 AM -5.8 °F -18.4 °F -7.6 °F 92% 30.62 in 10.0 mi East 5.8 mph - N/A   Clear
8:56 AM -4.0 °F -14.6 °F -7.6 °F 85% 30.62 in 10.0 mi East 4.6 mph - N/A   Clear
9:16 AM -4.0 °F - -7.6 °F 85% 30.63 in 10.0 mi Calm Calm - N/A   Clear
9:36 AM -5.8 °F - -9.4 °F 84% 30.64 in 10.0 mi Calm Calm - N/A   Clear
9:56 AM -5.8 °F -14.5 °F -9.4 °F 84% 30.64 in 10.0 mi East 3.5 mph - N/A   Clear
10:16 AM -5.8 °F - -9.4 °F 84% 30.65 in 10.0 mi Calm Calm - N/A   Clear
10:36 AM -5.8 °F - -7.6 °F 92% 30.66 in 5.0 mi Calm Calm - N/A   Clear
10:56 AM -5.8 °F -16.7 °F -7.6 °F 92% 30.66 in 10.0 mi ENE 4.6 mph - N/A   Clear
11:16 AM -4.0 °F -14.6 °F -7.6 °F 85% 30.66 in 10.0 mi East 4.6 mph - N/A   Clear
11:36 AM -2.2 °F -16.8 °F -2.2 °F 100% 30.66 in 10.0 mi East 8.1 mph - N/A   Clear
11:56 AM 1.4 °F -12.5 °F -2.2 °F 85% 30.66 in 10.0 mi East 8.1 mph - N/A   Clear
12:16 PM 1.4 °F -11.3 °F -0.4 °F 92% 30.66 in 10.0 mi East 6.9 mph - N/A   Clear
12:36 PM 3.2 °F - 1.4 °F 92% 30.67 in 10.0 mi Calm Calm - N/A   Clear
12:56 PM 3.2 °F - 1.4 °F 92% 30.67 in 10.0 mi Calm Calm - N/A   Clear
1:16 PM 6.8 °F - 3.2 °F 85% 30.67 in 10.0 mi Calm Calm - N/A   Clear
1:36 PM 5.0 °F -6.9 °F 1.4 °F 85% 30.67 in 10.0 mi East 6.9 mph - N/A   Clear
1:56 PM 5.0 °F -4.1 °F 1.4 °F 85% 30.67 in 10.0 mi East 4.6 mph - N/A   Clear
2:16 PM 6.8 °F -2.0 °F 3.2 °F 85% 30.67 in 10.0 mi East 4.6 mph - N/A   Clear
2:36 PM 6.8 °F -2.0 °F 3.2 °F 85% 30.67 in 10.0 mi East 4.6 mph - N/A   Clear
2:56 PM 6.8 °F -3.5 °F 5.0 °F 92% 30.66 in 10.0 mi East 5.8 mph - N/A   Clear
3:16 PM 8.6 °F 2.0 °F 3.2 °F 79% 30.67 in 10.0 mi East 3.5 mph - N/A   Clear
3:36 PM 6.8 °F - 3.2 °F 85% 30.68 in 10.0 mi Calm Calm - N/A   Clear
3:56 PM 5.0 °F - 1.4 °F 85% 30.68 in 10.0 mi Calm Calm - N/A   Clear
4:16 PM 6.8 °F - 5.0 °F 92% 30.68 in 10.0 mi Calm Calm - N/A   Clear
4:36 PM 6.8 °F -0.1 °F 6.8 °F 100% 30.68 in 10.0 mi East 3.5 mph - N/A   Clear
4:56 PM 6.8 °F -3.5 °F 1.4 °F 79% 30.69 in 10.0 mi ESE 5.8 mph - N/A   Clear
5:16 PM 6.8 °F -0.1 °F 5.0 °F 92% 30.70 in 10.0 mi East 3.5 mph - N/A   Clear
5:36 PM 6.8 °F - 3.2 °F 85% 30.70 in 10.0 mi Calm Calm - N/A   Clear
5:56 PM 6.8 °F - 1.4 °F 79% 30.70 in 10.0 mi Calm Calm - N/A   Clear
6:16 PM 3.2 °F - 1.4 °F 92% 30.71 in 10.0 mi Calm Calm - N/A   Clear
6:36 PM 3.2 °F -4.2 °F 1.4 °F 92% 30.70 in 10.0 mi East 3.5 mph - N/A   Clear
6:56 PM 5.0 °F -4.1 °F 3.2 °F 92% 30.70 in 10.0 mi East 4.6 mph - N/A   Clear
7:16 PM 5.0 °F -2.1 °F 3.2 °F 92% 30.70 in 10.0 mi East 3.5 mph - N/A   Clear
7:36 PM 3.2 °F -6.2 °F 1.4 °F 92% 30.70 in 10.0 mi East 4.6 mph - N/A   Clear
7:56 PM 5.0 °F -2.1 °F 3.2 °F 92% 30.70 in 10.0 mi East 3.5 mph - N/A   Clear
8:16 PM 3.2 °F - -2.2 °F 78% 30.70 in 10.0 mi Calm Calm - N/A   Clear
8:36 PM 1.4 °F - -2.2 °F 85% 30.70 in 10.0 mi Calm Calm - N/A   Clear
8:56 PM 3.2 °F -4.2 °F -0.4 °F 85% 30.70 in 10.0 mi ENE 3.5 mph - N/A   Clear
9:16 PM 1.4 °F -6.2 °F -5.8 °F 72% 30.71 in 10.0 mi East 3.5 mph - N/A   Clear
9:36 PM -0.4 °F -8.3 °F -4.0 °F 85% 30.71 in 10.0 mi East 3.5 mph - N/A   Clear
9:56 PM 1.4 °F -8.3 °F -2.2 °F 85% 30.72 in 10.0 mi ENE 4.6 mph - N/A   Clear
10:16 PM 1.4 °F - -2.2 °F 85% 30.73 in 10.0 mi Calm Calm - N/A   Clear
10:36 PM -0.4 °F -10.4 °F -2.2 °F 92% 30.72 in 10.0 mi East 4.6 mph - N/A   Clear
10:56 PM 1.4 °F -6.2 °F 1.4 °F 100% 30.73 in 10.0 mi East 3.5 mph - N/A   Clear
11:16 PM -0.4 °F -8.3 °F -7.6 °F 72% 30.73 in 10.0 mi NE 3.5 mph - N/A   Clear
11:36 PM -0.4 °F -10.4 °F -2.2 °F 92% 30.73 in 10.0 mi East 4.6 mph - N/A   Clear
11:56 PM 1.4 °F -6.2 °F -0.4 °F 92% 30.73 in 10.0 mi East 3.5 mph - N/A   Clear